Back to catalog

WORLDVIEW 2 DEB

AliveSSO
NORAD 41742·DEBRIS·🇺🇸 United States

Launched Oct 8, 2009 from Vandenberg Space Force Base

Loading…

Next Passes (next 24 hours)

TLE

FreshSource: Space-Track

Epoch: Sep 14, 2026, 04:51 UTC

1 41742U 09055K   26257.20239597  .00002182  00000-0  47231-3 0  9999
2 41742  98.3526 351.9949 0006000 289.2842  70.7708 14.59240653535094

Track WORLDVIEW 2 DEB in real time with AllMySat

Download on the App Store